User: anonymous   Login
Location: Lac de la Montange Noire
(46.1952°N, 74.2701°W)
Time: 02:52:30
(UTC-04:00)
Language:

Iridium 42 - Orbit

View from above orbital plane
View from above orbital plane
View from above satellite
View from above satellite

Ground track
Ground track

The orbit data is extracted from the following two-line orbital elements,

1 25077U 97077A   15209.37395701  .00000091  00000-0  25436-4 0  9997
2 25077 086.3992 310.3036 0002208 089.1062 271.0386 14.34395068923301
Epoch (UTC): 28 July 2015 08:58:29
Eccentricity: 0.0002208
inclination: 86.3992°
perigee height: 775 km
apogee height: 778 km
right ascension of ascending node: 310.3036°
argument of perigee: 89.1062°
revolutions per day: 14.34395068
mean anomaly at epoch: 271.0386°
orbit number at epoch: 92330

The dashed part of the orbit path shows where the satellite is in the earth's shadow,  

DLR